This is the latest recevied weather packets stored in our database for station/object DG1ABU-11. If no packets are shown the sender has not sent any weather packets the latest 10 day(s).
| Time | Temp. | Humidity | Pressure | Rain* | Wind** | Luminosity | Snow |
|---|---|---|---|---|---|---|---|
| 1777421815 | 10° C | 37% | 1027.9 hPa | - | - | - | - |
| 1777420915 | 10° C | 37% | 1027.8 hPa | - | - | - | - |
| 1777420015 | 10.56° C | 37% | 1027.8 hPa | - | - | - | - |
| 1777419115 | 10.56° C | 37% | 1027.6 hPa | - | - | - | - |
| 1777418215 | 11.11° C | 36% | 1027.5 hPa | - | - | - | - |
| 1777417315 | 11.11° C | 36% | 1027.3 hPa | - | - | - | - |
| 1777416415 | 11.11° C | 35% | 1027.2 hPa | - | - | - | - |
| 1777415515 | 11.67° C | 35% | 1027.2 hPa | - | - | - | - |
| 1777414614 | 11.67° C | 34% | 1027.1 hPa | - | - | - | - |
| 1777413714 | 12.22° C | 35% | 1026.9 hPa | - | - | - | - |
| 1777412814 | 12.22° C | 34% | 1027 hPa | - | - | - | - |
| 1777411914 | 12.78° C | 34% | 1026.9 hPa | - | - | - | - |
| 1777411014 | 12.78° C | 33% | 1026.9 hPa | - | - | - | - |
| 1777410114 | 13.33° C | 33% | 1026.8 hPa | - | - | - | - |
| 1777409214 | 13.89° C | 32% | 1026.6 hPa | - | - | - | - |
| 1777408314 | 13.89° C | 31% | 1026.5 hPa | - | - | - | - |
| 1777407414 | 14.44° C | 31% | 1026.4 hPa | - | - | - | - |
| 1777406514 | 15° C | 31% | 1026.3 hPa | - | - | - | - |
| 1777405614 | 15.56° C | 30% | 1026.2 hPa | - | - | - | - |
| 1777404714 | 15.56° C | 32% | 1026.1 hPa | - | - | - | - |
| 1777403814 | 16.11° C | 30% | 1026 hPa | - | - | - | - |
| 1777402914 | 16.67° C | 31% | 1026 hPa | - | - | - | - |
| 1777402014 | 17.22° C | 29% | 1025.8 hPa | - | - | - | - |
| 1777401114 | 17.78° C | 28% | 1025.6 hPa | - | - | - | - |
| 1777400214 | 18.33° C | 26% | 1025.5 hPa | - | - | - | - |
* Rain since midnight (hover to see other rain measurements)
** Current wind speed in m/s (hover to see current wind gust speed)